Location: Barrio Las Umbrías
(40.4173°N, 4.8685°W)
Time: 13:04:32
(UTC+00:00)

Cosmos 773 Rocket - Pass Details

Date: 17 August 2022
Orbit: 744 x 777 km, 74.1° (Epoch: 28 September)

Event Time Altitude Azimuth Distance (km) Brightness Sun altitude
Rises 19:57:57 0° 201° (SSW) 3,172 7.2 -8.5°
Reaches altitude 10° 20:00:17 10° 202° (SSW) 2,251 6.4 -8.9°
Maximum altitude 20:05:23 78° 289° (WNW) 765 4.1 -9.8°
Drops below altitude 10° 20:10:32 10° 17° (NNE) 2,270 6.6 -10.7°
Sets 20:12:54 0° 18° (NNE) 3,201 7.4 -11.1°
